Location: Bazugues
(43.4465°N, 0.3432°E)
Time: 10:39:57
(UTC+00:00)

Cosmos 1758 - Pass Details

Date: 12 January 2026
Orbit: 479 x 500 km, 82.5° (Epoch: 10 February)

Event Time Altitude Azimuth Distance (km) Brightness Sun altitude
Rises 17:34:11 0° 346° (NNW) 2,563 6.7 -9.0°
Reaches altitude 10° 17:36:20 10° 341° (NNW) 1,674 5.8 -9.3°
Maximum altitude 17:39:52 49° 266° (W) 629 4.1 -9.9°
Drops below altitude 10° 17:43:22 10° 190° (S) 1,651 6.2 -10.5°
Sets 17:45:29 0° 185° (S) 2,524 7.0 -10.9°
